Tracking 18852 objects as of 24-Nov-2017
HD Live streaming from Space Station
objects crossing your sky now

FENGYUN 1C DEB

Track FENGYUN 1C DEB now!
10-day predictions


NORAD ID: 30217
Int'l Code: 1999-025WA
Perigee: 722.3 km
Apogee: 933.2 km
Inclination: 98.6 °
Period: 101.3 minutes
Semi major axis: 7198 km
RCS: 0.035 m2 (small)
Launch date: May 10, 1999
Source: People's Republic of China (PRC)
Launch site: Taiyaun Space Center, China (TSC)

Note: This is SATELLITE DEBRIS
aabbcc
Your satellite tracking list
Your tracking list is empty




NASA's NSSDC Master Catalog

Two Line Element Set (TLE):
1 30217U 99025WA  17327.40817601 +.00000127 +00000-0 +69634-4 0  9997
2 30217 098.6300 023.3400 0146467 029.0370 331.8855 14.21414116562621
Source of the keplerian elements: AFSPC